Vorticity
7 10 17 24 12 23 19 17 5 -1 -10 33 26 6 3 14 -12 25 7 10 6 4 3 3 6 10 13 13 15 16 17 14 12 10 12 12 11 12 13 13 13 14 13 11
3 32 20 4 0 12 33 33 14 21 15 12 -0 6 8 1 6 13 7 7 4 2 3 6 7 16 14 17 17 16 17 12 10 12 11 11 12 12 13 14 14 12 13 12
11 23 5 55 58 -19 -17 34 28 -7 19 -2 9 10 6 -33 22 8 9 4 6 1 5 7 12 15 15 18 15 17 15 11 11 11 10 11 12 12 13 14 14 13 13 10
-8 49 20 21 -32 -1 45 -24 -8 22 13 25 2 -2 -26 28 14 9 4 7 1 6 4 10 12 15 18 18 16 16 11 10 12 10 12 11 12 14 16 14 15 16 13 10
5 9 -23 48 33 -27 -6 14 24 33 3 -10 -26 6 3 16 11 6 6 2 8 6 4 3 13 14 18 20 17 13 10 10 11 12 12 11 12 14 16 16 19 16 10 10
-1 6 -4 -39 -8 21 38 9 22 -2 -30 1 7 2 19 4 10 3 -3 11 2 8 4 9 12 15 17 19 15 10 10 12 12 12 11 12 12 16 18 18 13 11 14 16
26 -14 20 16 39 39 27 -4 -54 2 11 -6 12 15 10 4 8 4 0 9 3 8 4 7 8 11 20 16 12 9 9 11 12 12 11 12 14 16 20 17 11 17 22 27
44 25 13 5 -20 3 -14 9 -3 3 5 23 1 -2 11 18 9 2 5 8 7 14 3 7 11 11 17 16 11 8 11 11 13 13 14 12 13 16 19 10 15 21 22 23
-5 -35 -46 -6 15 4 10 1 11 39 7 0 8 27 12 6 4 4 13 7 14 8 3 7 13 15 14 15 7 13 10 11 13 13 13 13 15 21 17 12 24 22 18 11
26 3 -16 18 29 41 37 13 8 14 -25 36 16 13 6 7 13 8 12 12 8 7 3 13 11 14 17 13 9 12 10 12 13 12 13 16 16 18 11 15 24 22 14 11
6 -6 40 10 7 12 14 -12 -22 34 24 18 7 6 21 17 6 6 5 9 7 8 5 12 9 13 11 14 15 9 11 12 13 12 13 14 20 16 15 27 24 18 15 15
22 23 9 3 2 5 -1 29 14 14 9 7 11 14 5 8 10 8 10 10 5 5 5 6 6 12 10 15 12 11 9 13 13 12 13 15 18 15 21 28 16 15 17 12
-18 -17 2 19 20 25 11 -0 14 25 12 12 6 4 2 3 7 9 13 15 8 5 8 9 9 12 12 13 12 10 11 12 13 11 14 19 15 17 25 29 18 15 6 9
32 22 6 2 8 8 20 29 13 1 8 5 9 9 13 9 11 15 12 11 14 10 9 12 12 16 14 11 10 11 11 14 11 14 17 15 15 19 24 21 20 27 15 9
17 13 16 23 20 8 -3 -1 4 1 4 3 8 15 13 10 12 11 4 11 9 13 14 14 13 18 16 9 10 11 13 12 12 17 15 13 15 21 27 17 14 16 16 5
6 8 9 6 5 -4 -6 0 3 6 10 13 9 13 11 11 9 8 7 16 12 16 13 11 16 17 17 9 9 12 12 13 14 14 14 15 17 22 24 16 22 9 15 -2
10 10 9 -18 -7 7 9 10 7 9 7 14 18 14 8 11 10 14 20 17 17 19 14 13 20 18 17 8 9 12 11 14 14 14 15 15 16 23 23 18 16 13 24 14
8 12 -1 7 1 8 13 14 13 13 12 10 11 11 14 20 24 18 22 23 26 15 17 16 20 18 10 7 10 11 13 13 13 14 14 15 18 20 19 18 15 7 13 17
16 9 0 -1 1 7 7 12 15 5 10 18 16 19 14 12 22 28 21 18 16 12 20 20 21 13 8 9 11 13 14 11 13 14 15 15 17 20 20 18 15 16 12 26
3 2 3 5 13 16 10 15 10 9 13 14 13 14 7 29 20 20 19 17 14 16 20 21 17 7 8 10 12 13 12 11 13 13 16 15 15 19 21 18 16 17 18 15
9 9 8 10 12 14 11 10 9 12 12 9 15 10 13 31 16 21 20 16 21 20 19 16 10 10 7 12 11 13 11 12 14 13 16 14 13 18 25 17 16 20 9 27
10 10 8 12 16 12 12 14 16 14 10 14 20 13 11 27 14 14 20 21 25 18 17 13 12 7 10 11 11 13 12 12 13 13 15 13 13 16 25 19 15 17 20 13
6 9 8 11 11 15 9 12 15 11 11 15 17 16 14 24 19 18 20 24 20 15 12 15 7 9 11 11 12 13 12 12 13 13 13 13 15 17 23 21 12 14 30 16
12 13 12 13 15 4 10 11 4 11 21 15 17 15 17 22 20 23 30 20 12 10 18 9 8 10 11 11 11 13 13 12 13 12 12 13 15 18 21 21 20 10 17 13
11 14 14 11 10 11 13 11 12 19 23 17 19 14 14 23 33 34 20 14 12 16 9 9 7 11 10 11 11 13 13 12 12 11 11 13 15 17 18 21 22 20 12 10
14 9 10 8 10 12 12 14 17 20 22 18 17 13 18 34 30 18 15 13 11 13 8 8 8 11 10 11 11 12 13 11 12 13 10 13 15 15 14 19 22 23 20 14
8 12 13 13 12 16 18 17 20 21 21 19 16 15 27 26 17 13 12 10 13 13 10 7 11 11 11 10 11 12 13 12 11 12 11 11 15 14 12 15 21 23 21 18
Height
3110 3106 3103 3097 3092 3088 3086 3087 3082 3063 3065 3063 3064 3058 3053 3049 3045 3038 3031 3025 3018 3010 3002 2993 2985 2977 2968 2958 2950 2941 2935 2928 2923 2918 2913 2910 2906 2901 2897 2894 2892 2891 2891 2892
3096 3097 3092 3085 3084 3079 3077 3074 3067 3063 3053 3059 3054 3049 3045 3043 3037 3029 3023 3017 3009 3000 2993 2985 2975 2965 2957 2949 2940 2931 2925 2919 2913 2907 2903 2899 2894 2889 2886 2883 2878 2876 2878 2881
3086 3088 3085 3078 3069 3070 3068 3066 3065 3061 3056 3050 3045 3042 3038 3034 3029 3020 3014 3006 2998 2991 2985 2976 2964 2954 2945 2937 2928 2921 2915 2909 2903 2897 2892 2887 2882 2877 2874 2870 2866 2864 2863 2863
3085 3083 3081 3068 3067 3065 3060 3059 3056 3051 3048 3043 3037 3032 3032 3030 3019 3012 3005 2999 2992 2983 2974 2965 2953 2943 2935 2926 2919 2911 2905 2899 2893 2887 2881 2875 2870 2866 2862 2857 2854 2853 2851 2851
3086 3075 3063 3060 3059 3059 3054 3046 3047 3042 3040 3037 3033 3025 3022 3019 3011 3004 2998 2990 2982 2973 2963 2953 2943 2933 2925 2917 2909 2903 2896 2890 2883 2876 2869 2863 2857 2853 2849 2843 2841 2840 2839 2838
3081 3078 3066 3056 3054 3051 3046 3039 3038 3035 3034 3028 3022 3014 3006 3005 3001 2994 2987 2979 2970 2962 2953 2943 2933 2923 2914 2907 2899 2893 2885 2879 2873 2866 2858 2850 2844 2840 2835 2830 2827 2826 2824 2824
3070 3068 3054 3052 3048 3045 3045 3041 3032 3027 3023 3019 3014 3009 3000 2995 2991 2986 2979 2972 2962 2953 2943 2931 2921 2913 2904 2896 2888 2882 2875 2869 2862 2855 2846 2839 2831 2827 2821 2817 2813 2810 2808 2809
3062 3060 3052 3048 3046 3046 3036 3027 3022 3019 3014 3009 3005 3000 2993 2987 2981 2976 2968 2961 2954 2943 2934 2922 2912 2903 2894 2886 2878 2872 2865 2859 2851 2845 2837 2828 2819 2814 2809 2804 2799 2796 2794 2795
3058 3045 3045 3043 3039 3033 3024 3019 3013 3008 3005 3000 2995 2988 2982 2975 2970 2964 2957 2949 2941 2932 2923 2915 2903 2892 2884 2877 2868 2861 2855 2848 2840 2834 2826 2818 2808 2802 2796 2792 2786 2783 2782 2783
3041 3035 3036 3034 3030 3022 3015 3010 3006 3002 2997 2991 2984 2979 2972 2967 2960 2954 2947 2938 2929 2921 2913 2905 2894 2884 2874 2866 2858 2850 2843 2837 2829 2821 2814 2807 2798 2790 2784 2778 2773 2771 2770 2770
3028 3027 3025 3020 3015 3011 3007 3004 3000 2994 2988 2981 2974 2969 2962 2957 2950 2943 2935 2927 2918 2910 2902 2894 2884 2874 2864 2857 2849 2841 2834 2827 2818 2809 2802 2794 2787 2780 2772 2767 2761 2759 2760 2758
3017 3020 3016 3011 3005 3000 2996 2992 2987 2980 2975 2972 2966 2959 2953 2947 2940 2931 2923 2915 2907 2899 2891 2882 2874 2864 2854 2847 2840 2831 2823 2816 2807 2797 2791 2782 2773 2767 2764 2753 2750 2749 2747 2746
3012 3010 3007 3001 2996 2991 2987 2983 2978 2974 2970 2961 2957 2949 2943 2935 2928 2919 2912 2903 2895 2888 2879 2869 2862 2854 2845 2837 2830 2823 2813 2804 2795 2788 2780 2771 2763 2753 2745 2746 2738 2739 2737 2735
3004 3001 2997 2992 2988 2984 2979 2974 2970 2966 2962 2955 2947 2940 2931 2923 2916 2908 2900 2891 2881 2874 2867 2857 2850 2843 2834 2826 2821 2814 2805 2797 2786 2779 2770 2762 2753 2744 2737 2732 2732 2731 2727 2723
2994 2991 2987 2983 2979 2974 2971 2965 2959 2954 2948 2942 2935 2925 2917 2909 2901 2894 2886 2878 2869 2861 2854 2844 2839 2832 2825 2817 2811 2804 2796 2787 2779 2772 2763 2754 2744 2736 2730 2725 2721 2718 2716 2715
2985 2982 2979 2975 2970 2966 2961 2956 2948 2942 2936 2928 2921 2913 2905 2896 2888 2880 2873 2863 2853 2848 2841 2833 2828 2821 2815 2808 2802 2797 2789 2781 2772 2762 2755 2746 2737 2729 2722 2717 2713 2709 2706 2704
2978 2975 2971 2966 2962 2957 2951 2945 2938 2929 2921 2915 2906 2898 2890 2881 2872 2864 2858 2850 2841 2834 2828 2822 2817 2811 2806 2800 2793 2787 2779 2772 2765 2757 2748 2739 2730 2723 2716 2710 2706 2703 2699 2696
2972 2969 2963 2957 2951 2945 2939 2933 2925 2917 2909 2901 2892 2883 2874 2865 2856 2848 2842 2835 2829 2823 2818 2812 2807 2802 2798 2792 2786 2780 2772 2765 2758 2750 2742 2734 2725 2717 2710 2705 2701 2697 2694 2690
2964 2958 2954 2948 2942 2935 2927 2920 2912 2905 2898 2889 2880 2871 2862 2853 2843 2836 2829 2823 2818 2813 2809 2804 2799 2796 2792 2787 2780 2774 2767 2760 2753 2746 2738 2729 2721 2713 2706 2702 2698 2693 2689 2685
2955 2950 2944 2937 2932 2926 2917 2910 2901 2893 2886 2877 2868 2859 2850 2841 2832 2825 2819 2814 2809 2803 2800 2797 2793 2790 2786 2781 2776 2769 2762 2756 2749 2742 2734 2725 2718 2709 2703 2699 2695 2691 2687 2683
2945 2939 2933 2927 2920 2914 2906 2898 2889 2882 2875 2867 2857 2848 2839 2831 2824 2816 2810 2805 2801 2796 2794 2791 2788 2785 2781 2777 2771 2765 2759 2753 2746 2739 2731 2723 2715 2708 2702 2697 2693 2690 2687 2683
2934 2928 2922 2915 2907 2901 2895 2887 2879 2871 2863 2855 2847 2839 2830 2822 2815 2809 2804 2798 2794 2791 2789 2787 2784 2781 2777 2773 2768 2762 2756 2750 2744 2737 2730 2722 2714 2707 2701 2696 2692 2689 2686 2683
2922 2916 2910 2904 2896 2889 2883 2876 2869 2861 2853 2845 2837 2829 2821 2813 2807 2800 2796 2792 2789 2788 2786 2784 2782 2778 2774 2770 2765 2760 2754 2749 2743 2736 2729 2721 2714 2707 2701 2696 2692 2689 2685 2683
2912 2906 2900 2893 2886 2879 2873 2866 2858 2851 2842 2835 2828 2821 2813 2805 2800 2794 2790 2788 2787 2785 2784 2782 2779 2776 2772 2768 2764 2759 2753 2748 2743 2736 2729 2723 2716 2708 2702 2697 2693 2690 2687 2685
2901 2894 2889 2882 2875 2868 2861 2853 2847 2840 2831 2826 2820 2813 2806 2799 2793 2789 2787 2786 2785 2784 2782 2780 2778 2774 2771 2767 2762 2758 2753 2748 2742 2737 2731 2724 2718 2711 2704 2699 2694 2691 2688 2687
2891 2885 2879 2872 2864 2857 2850 2843 2836 2830 2821 2816 2813 2806 2800 2794 2790 2788 2787 2786 2784 2783 2781 2779 2777 2773 2770 2766 2762 2758 2753 2748 2744 2738 2732 2727 2720 2714 2707 2701 2697 2693 2690 2688
2883 2876 2870 2863 2855 2848 2841 2834 2826 2820 2815 2809 2805 2800 2795 2792 2789 2788 2786 2785 2784 2783 2781 2779 2776 2773 2770 2766 2763 2758 2754 2749 2745 2740 2735 2729 2723 2717 2711 2705 2700 2695 2692 2691